Date_Time,Julian_Date,Latitude,Longitude,Instrument_Depth,Water_Temperature
(yyyy-mm-dd hh:mn:ss UTC),(JD),(+ deg. North),(+ deg. East),(m),(deg. C)
1984-10-18 07:19:00 UTC,2445991.804861,25.7150,-84.8850,1100,4.7200
1984-10-18 07:49:00 UTC,2445991.825694,25.7150,-84.8850,1100,4.6000
1984-10-18 08:19:00 UTC,2445991.846528,25.7150,-84.8850,1100,4.5600
1984-10-18 08:49:00 UTC,2445991.867361,25.7150,-84.8850,1100,4.6100
1984-10-18 09:19:00 UTC,2445991.888194,25.7150,-84.8850,1100,4.5900
1984-10-18 09:49:00 UTC,2445991.909028,25.7150,-84.8850,1100,4.5900
1984-10-18 10:19:00 UTC,2445991.929861,25.7150,-84.8850,1100,4.5800
1984-10-18 10:49:00 UTC,2445991.950694,25.7150,-84.8850,1100,4.5800
1984-10-18 11:19:00 UTC,2445991.971528,25.7150,-84.8850,1100,4.5800
1984-10-18 11:49:00 UTC,2445991.992361,25.7150,-84.8850,1100,4.5700
1984-10-18 12:19:00 UTC,2445992.013194,25.7150,-84.8850,1100,4.5600
1984-10-18 12:49:00 UTC,2445992.034028,25.7150,-84.8850,1100,4.5700
1984-10-18 13:19:00 UTC,2445992.054861,25.7150,-84.8850,1100,4.5800
1984-10-18 13:49:00 UTC,2445992.075694,25.7150,-84.8850,1100,4.5800
1984-10-18 14:19:00 UTC,2445992.096528,25.7150,-84.8850,1100,4.5900
1984-10-18 14:49:00 UTC,2445992.117361,25.7150,-84.8850,1100,4.5900
1984-10-18 15:19:00 UTC,2445992.138194,25.7150,-84.8850,1100,4.6100
1984-10-18 15:49:00 UTC,2445992.159028,25.7150,-84.8850,1100,4.6100
1984-10-18 16:19:00 UTC,2445992.179861,25.7150,-84.8850,1100,4.5900
1984-10-18 16:49:00 UTC,2445992.200694,25.7150,-84.8850,1100,4.5600
1984-10-18 17:19:00 UTC,2445992.221528,25.7150,-84.8850,1100,4.5600
1984-10-18 17:49:00 UTC,2445992.242361,25.7150,-84.8850,1100,4.5700
1984-10-18 18:19:00 UTC,2445992.263194,25.7150,-84.8850,1100,4.5600
1984-10-18 18:49:00 UTC,2445992.284028,25.7150,-84.8850,1100,4.5600
1984-10-18 19:19:00 UTC,2445992.304861,25.7150,-84.8850,1100,4.5700
1984-10-18 19:49:00 UTC,2445992.325694,25.7150,-84.8850,1100,4.5800
1984-10-18 20:19:00 UTC,2445992.346528,25.7150,-84.8850,1100,4.5800
1984-10-18 20:49:00 UTC,2445992.367361,25.7150,-84.8850,1100,4.5800
1984-10-18 21:19:00 UTC,2445992.388194,25.7150,-84.8850,1100,4.5800
1984-10-18 21:49:00 UTC,2445992.409028,25.7150,-84.8850,1100,4.5800
1984-10-18 22:19:00 UTC,2445992.429861,25.7150,-84.8850,1100,4.5900
1984-10-18 22:49:00 UTC,2445992.450694,25.7150,-84.8850,1100,4.5900
1984-10-18 23:19:00 UTC,2445992.471528,25.7150,-84.8850,1100,4.5900
1984-10-18 23:49:00 UTC,2445992.492361,25.7150,-84.8850,1100,4.5800
1984-10-19 00:19:00 UTC,2445992.513194,25.7150,-84.8850,1100,4.5800
1984-10-19 00:49:00 UTC,2445992.534028,25.7150,-84.8850,1100,4.5900
1984-10-19 01:19:00 UTC,2445992.554861,25.7150,-84.8850,1100,4.5900
1984-10-19 01:49:00 UTC,2445992.575694,25.7150,-84.8850,1100,4.5900
1984-10-19 02:19:00 UTC,2445992.596528,25.7150,-84.8850,1100,4.5900
1984-10-19 02:49:00 UTC,2445992.617361,25.7150,-84.8850,1100,4.5800
1984-10-19 03:19:00 UTC,2445992.638194,25.7150,-84.8850,1100,4.5600
1984-10-19 03:49:00 UTC,2445992.659028,25.7150,-84.8850,1100,4.6000
1984-10-19 04:19:00 UTC,2445992.679861,25.7150,-84.8850,1100,4.5900
1984-10-19 04:49:00 UTC,2445992.700694,25.7150,-84.8850,1100,4.5800
1984-10-19 05:19:00 UTC,2445992.721528,25.7150,-84.8850,1100,4.5900
1984-10-19 05:49:00 UTC,2445992.742361,25.7150,-84.8850,1100,4.5600
1984-10-19 06:19:00 UTC,2445992.763194,25.7150,-84.8850,1100,4.5400
1984-10-19 06:49:00 UTC,2445992.784028,25.7150,-84.8850,1100,4.5600
1984-10-19 07:19:00 UTC,2445992.804861,25.7150,-84.8850,1100,4.5800
1984-10-19 07:49:00 UTC,2445992.825694,25.7150,-84.8850,1100,4.5800
1984-10-19 08:19:00 UTC,2445992.846528,25.7150,-84.8850,1100,4.5800
1984-10-19 08:49:00 UTC,2445992.867361,25.7150,-84.8850,1100,4.5800
1984-10-19 09:19:00 UTC,2445992.888194,25.7150,-84.8850,1100,4.5800
1984-10-19 09:49:00 UTC,2445992.909028,25.7150,-84.8850,1100,4.5800
1984-10-19 10:19:00 UTC,2445992.929861,25.7150,-84.8850,1100,4.6100
1984-10-19 10:49:00 UTC,2445992.950694,25.7150,-84.8850,1100,4.6100
1984-10-19 11:19:00 UTC,2445992.971528,25.7150,-84.8850,1100,4.6100
1984-10-19 11:49:00 UTC,2445992.992361,25.7150,-84.8850,1100,4.6100
1984-10-19 12:19:00 UTC,2445993.013194,25.7150,-84.8850,1100,4.6100
1984-10-19 12:49:00 UTC,2445993.034028,25.7150,-84.8850,1100,4.5700
1984-10-19 13:19:00 UTC,2445993.054861,25.7150,-84.8850,1100,4.5900
1984-10-19 13:49:00 UTC,2445993.075694,25.7150,-84.8850,1100,4.5900
1984-10-19 14:19:00 UTC,2445993.096528,25.7150,-84.8850,1100,4.5900
1984-10-19 14:49:00 UTC,2445993.117361,25.7150,-84.8850,1100,4.5900
1984-10-19 15:19:00 UTC,2445993.138194,25.7150,-84.8850,1100,4.5900
1984-10-19 15:49:00 UTC,2445993.159028,25.7150,-84.8850,1100,4.5800
1984-10-19 16:19:00 UTC,2445993.179861,25.7150,-84.8850,1100,4.5900
1984-10-19 16:49:00 UTC,2445993.200694,25.7150,-84.8850,1100,4.5900
1984-10-19 17:19:00 UTC,2445993.221528,25.7150,-84.8850,1100,4.5900
1984-10-19 17:49:00 UTC,2445993.242361,25.7150,-84.8850,1100,4.6100
1984-10-19 18:19:00 UTC,2445993.263194,25.7150,-84.8850,1100,4.5600
1984-10-19 18:49:00 UTC,2445993.284028,25.7150,-84.8850,1100,4.5700
1984-10-19 19:19:00 UTC,2445993.304861,25.7150,-84.8850,1100,4.6100
1984-10-19 19:49:00 UTC,2445993.325694,25.7150,-84.8850,1100,4.5900
1984-10-19 20:19:00 UTC,2445993.346528,25.7150,-84.8850,1100,4.5600
1984-10-19 20:49:00 UTC,2445993.367361,25.7150,-84.8850,1100,4.5800
1984-10-19 21:19:00 UTC,2445993.388194,25.7150,-84.8850,1100,4.5900
1984-10-19 21:49:00 UTC,2445993.409028,25.7150,-84.8850,1100,4.5800
1984-10-19 22:19:00 UTC,2445993.429861,25.7150,-84.8850,1100,4.5900
1984-10-19 22:49:00 UTC,2445993.450694,25.7150,-84.8850,1100,4.5800
1984-10-19 23:19:00 UTC,2445993.471528,25.7150,-84.8850,1100,4.5800
1984-10-19 23:49:00 UTC,2445993.492361,25.7150,-84.8850,1100,4.5800
1984-10-20 00:19:00 UTC,2445993.513194,25.7150,-84.8850,1100,4.5800
1984-10-20 00:49:00 UTC,2445993.534028,25.7150,-84.8850,1100,4.5800
1984-10-20 01:19:00 UTC,2445993.554861,25.7150,-84.8850,1100,4.5800
1984-10-20 01:49:00 UTC,2445993.575694,25.7150,-84.8850,1100,4.5800
1984-10-20 02:19:00 UTC,2445993.596528,25.7150,-84.8850,1100,4.5800
1984-10-20 02:49:00 UTC,2445993.617361,25.7150,-84.8850,1100,4.5900
1984-10-20 03:19:00 UTC,2445993.638194,25.7150,-84.8850,1100,4.6100
1984-10-20 03:49:00 UTC,2445993.659028,25.7150,-84.8850,1100,4.6100
1984-10-20 04:19:00 UTC,2445993.679861,25.7150,-84.8850,1100,4.5800
1984-10-20 04:49:00 UTC,2445993.700694,25.7150,-84.8850,1100,4.5700
1984-10-20 05:19:00 UTC,2445993.721528,25.7150,-84.8850,1100,4.6100
1984-10-20 05:49:00 UTC,2445993.742361,25.7150,-84.8850,1100,4.6100
1984-10-20 06:19:00 UTC,2445993.763194,25.7150,-84.8850,1100,4.5900
1984-10-20 06:49:00 UTC,2445993.784028,25.7150,-84.8850,1100,4.5800
1984-10-20 07:19:00 UTC,2445993.804861,25.7150,-84.8850,1100,4.5700
1984-10-20 07:49:00 UTC,2445993.825694,25.7150,-84.8850,1100,4.5000
1984-10-20 08:19:00 UTC,2445993.846528,25.7150,-84.8850,1100,4.4800
1984-10-20 08:49:00 UTC,2445993.867361,25.7150,-84.8850,1100,4.4700
1984-10-20 09:19:00 UTC,2445993.888194,25.7150,-84.8850,1100,4.4700
1984-10-20 09:49:00 UTC,2445993.909028,25.7150,-84.8850,1100,4.4700
1984-10-20 10:19:00 UTC,2445993.929861,25.7150,-84.8850,1100,4.4700
1984-10-20 10:49:00 UTC,2445993.950694,25.7150,-84.8850,1100,4.4800
1984-10-20 11:19:00 UTC,2445993.971528,25.7150,-84.8850,1100,4.4800
1984-10-20 11:49:00 UTC,2445993.992361,25.7150,-84.8850,1100,4.5400
1984-10-20 12:19:00 UTC,2445994.013194,25.7150,-84.8850,1100,4.5600
1984-10-20 12:49:00 UTC,2445994.034028,25.7150,-84.8850,1100,4.5800
1984-10-20 13:19:00 UTC,2445994.054861,25.7150,-84.8850,1100,4.5800
1984-10-20 13:49:00 UTC,2445994.075694,25.7150,-84.8850,1100,4.5800
1984-10-20 14:19:00 UTC,2445994.096528,25.7150,-84.8850,1100,4.5900
1984-10-20 14:49:00 UTC,2445994.117361,25.7150,-84.8850,1100,4.5900
1984-10-20 15:19:00 UTC,2445994.138194,25.7150,-84.8850,1100,4.5900
1984-10-20 15:49:00 UTC,2445994.159028,25.7150,-84.8850,1100,4.5900
1984-10-20 16:19:00 UTC,2445994.179861,25.7150,-84.8850,1100,4.5900
1984-10-20 16:49:00 UTC,2445994.200694,25.7150,-84.8850,1100,4.5900
1984-10-20 17:19:00 UTC,2445994.221528,25.7150,-84.8850,1100,4.5900
1984-10-20 17:49:00 UTC,2445994.242361,25.7150,-84.8850,1100,4.5900
1984-10-20 18:19:00 UTC,2445994.263194,25.7150,-84.8850,1100,4.5900
1984-10-20 18:49:00 UTC,2445994.284028,25.7150,-84.8850,1100,4.5900
1984-10-20 19:19:00 UTC,2445994.304861,25.7150,-84.8850,1100,4.5900
1984-10-20 19:49:00 UTC,2445994.325694,25.7150,-84.8850,1100,4.5800
1984-10-20 20:19:00 UTC,2445994.346528,25.7150,-84.8850,1100,4.5800
1984-10-20 20:49:00 UTC,2445994.367361,25.7150,-84.8850,1100,4.5800
1984-10-20 21:19:00 UTC,2445994.388194,25.7150,-84.8850,1100,4.5800
1984-10-20 21:49:00 UTC,2445994.409028,25.7150,-84.8850,1100,4.5800
1984-10-20 22:19:00 UTC,2445994.429861,25.7150,-84.8850,1100,4.5800
1984-10-20 22:49:00 UTC,2445994.450694,25.7150,-84.8850,1100,4.5800
1984-10-20 23:19:00 UTC,2445994.471528,25.7150,-84.8850,1100,4.6100
1984-10-20 23:49:00 UTC,2445994.492361,25.7150,-84.8850,1100,4.5900
1984-10-21 00:19:00 UTC,2445994.513194,25.7150,-84.8850,1100,4.6100
1984-10-21 00:49:00 UTC,2445994.534028,25.7150,-84.8850,1100,4.6100
1984-10-21 01:19:00 UTC,2445994.554861,25.7150,-84.8850,1100,4.6100
1984-10-21 01:49:00 UTC,2445994.575694,25.7150,-84.8850,1100,4.5900
1984-10-21 02:19:00 UTC,2445994.596528,25.7150,-84.8850,1100,4.5900
1984-10-21 02:49:00 UTC,2445994.617361,25.7150,-84.8850,1100,4.5800
1984-10-21 03:19:00 UTC,2445994.638194,25.7150,-84.8850,1100,4.5800
1984-10-21 03:49:00 UTC,2445994.659028,25.7150,-84.8850,1100,4.5800
1984-10-21 04:19:00 UTC,2445994.679861,25.7150,-84.8850,1100,4.5800
1984-10-21 04:49:00 UTC,2445994.700694,25.7150,-84.8850,1100,4.5800
1984-10-21 05:19:00 UTC,2445994.721528,25.7150,-84.8850,1100,4.5800
1984-10-21 05:49:00 UTC,2445994.742361,25.7150,-84.8850,1100,4.5800
1984-10-21 06:19:00 UTC,2445994.763194,25.7150,-84.8850,1100,4.5900
1984-10-21 06:49:00 UTC,2445994.784028,25.7150,-84.8850,1100,4.5900
1984-10-21 07:19:00 UTC,2445994.804861,25.7150,-84.8850,1100,4.5900
1984-10-21 07:49:00 UTC,2445994.825694,25.7150,-84.8850,1100,4.5900
1984-10-21 08:19:00 UTC,2445994.846528,25.7150,-84.8850,1100,4.5800
1984-10-21 08:49:00 UTC,2445994.867361,25.7150,-84.8850,1100,4.5800
1984-10-21 09:19:00 UTC,2445994.888194,25.7150,-84.8850,1100,4.5900
1984-10-21 09:49:00 UTC,2445994.909028,25.7150,-84.8850,1100,4.5900
1984-10-21 10:19:00 UTC,2445994.929861,25.7150,-84.8850,1100,4.5900
1984-10-21 10:49:00 UTC,2445994.950694,25.7150,-84.8850,1100,4.5900
1984-10-21 11:19:00 UTC,2445994.971528,25.7150,-84.8850,1100,4.5900
1984-10-21 11:49:00 UTC,2445994.992361,25.7150,-84.8850,1100,4.5900
1984-10-21 12:19:00 UTC,2445995.013194,25.7150,-84.8850,1100,4.5900
1984-10-21 12:49:00 UTC,2445995.034028,25.7150,-84.8850,1100,4.5800
1984-10-21 13:19:00 UTC,2445995.054861,25.7150,-84.8850,1100,4.5700
1984-10-21 13:49:00 UTC,2445995.075694,25.7150,-84.8850,1100,4.5600
1984-10-21 14:19:00 UTC,2445995.096528,25.7150,-84.8850,1100,4.5400
1984-10-21 14:49:00 UTC,2445995.117361,25.7150,-84.8850,1100,4.5000
1984-10-21 15:19:00 UTC,2445995.138194,25.7150,-84.8850,1100,4.4800
1984-10-21 15:49:00 UTC,2445995.159028,25.7150,-84.8850,1100,4.5400
1984-10-21 16:19:00 UTC,2445995.179861,25.7150,-84.8850,1100,4.5600
1984-10-21 16:49:00 UTC,2445995.200694,25.7150,-84.8850,1100,4.5600
1984-10-21 17:19:00 UTC,2445995.221528,25.7150,-84.8850,1100,4.5600
1984-10-21 17:49:00 UTC,2445995.242361,25.7150,-84.8850,1100,4.5700
1984-10-21 18:19:00 UTC,2445995.263194,25.7150,-84.8850,1100,4.5800
1984-10-21 18:49:00 UTC,2445995.284028,25.7150,-84.8850,1100,4.5800
1984-10-21 19:19:00 UTC,2445995.304861,25.7150,-84.8850,1100,4.5800
1984-10-21 19:49:00 UTC,2445995.325694,25.7150,-84.8850,1100,4.5800
1984-10-21 20:19:00 UTC,2445995.346528,25.7150,-84.8850,1100,4.5800
1984-10-21 20:49:00 UTC,2445995.367361,25.7150,-84.8850,1100,4.5900
1984-10-21 21:19:00 UTC,2445995.388194,25.7150,-84.8850,1100,4.5900
1984-10-21 21:49:00 UTC,2445995.409028,25.7150,-84.8850,1100,4.5900
1984-10-21 22:19:00 UTC,2445995.429861,25.7150,-84.8850,1100,4.5900
1984-10-21 22:49:00 UTC,2445995.450694,25.7150,-84.8850,1100,4.5900
1984-10-21 23:19:00 UTC,2445995.471528,25.7150,-84.8850,1100,4.5900
1984-10-21 23:49:00 UTC,2445995.492361,25.7150,-84.8850,1100,4.6000
1984-10-22 00:19:00 UTC,2445995.513194,25.7150,-84.8850,1100,4.6100
1984-10-22 00:49:00 UTC,2445995.534028,25.7150,-84.8850,1100,4.6000
1984-10-22 01:19:00 UTC,2445995.554861,25.7150,-84.8850,1100,4.6100
1984-10-22 01:49:00 UTC,2445995.575694,25.7150,-84.8850,1100,4.6100
1984-10-22 02:19:00 UTC,2445995.596528,25.7150,-84.8850,1100,4.5900
1984-10-22 02:49:00 UTC,2445995.617361,25.7150,-84.8850,1100,4.5900
1984-10-22 03:19:00 UTC,2445995.638194,25.7150,-84.8850,1100,4.5600
1984-10-22 03:49:00 UTC,2445995.659028,25.7150,-84.8850,1100,4.5600
1984-10-22 04:19:00 UTC,2445995.679861,25.7150,-84.8850,1100,4.6100
1984-10-22 04:49:00 UTC,2445995.700694,25.7150,-84.8850,1100,4.6100
1984-10-22 05:19:00 UTC,2445995.721528,25.7150,-84.8850,1100,4.5900
1984-10-22 05:49:00 UTC,2445995.742361,25.7150,-84.8850,1100,4.5800
1984-10-22 06:19:00 UTC,2445995.763194,25.7150,-84.8850,1100,4.5800
1984-10-22 06:49:00 UTC,2445995.784028,25.7150,-84.8850,1100,4.5800
1984-10-22 07:19:00 UTC,2445995.804861,25.7150,-84.8850,1100,4.5800
1984-10-22 07:49:00 UTC,2445995.825694,25.7150,-84.8850,1100,4.5900
1984-10-22 08:19:00 UTC,2445995.846528,25.7150,-84.8850,1100,4.5900
1984-10-22 08:49:00 UTC,2445995.867361,25.7150,-84.8850,1100,4.5900
1984-10-22 09:19:00 UTC,2445995.888194,25.7150,-84.8850,1100,4.5900
1984-10-22 09:49:00 UTC,2445995.909028,25.7150,-84.8850,1100,4.6100
1984-10-22 10:19:00 UTC,2445995.929861,25.7150,-84.8850,1100,4.6000
1984-10-22 10:49:00 UTC,2445995.950694,25.7150,-84.8850,1100,4.6100
1984-10-22 11:19:00 UTC,2445995.971528,25.7150,-84.8850,1100,4.5900
1984-10-22 11:49:00 UTC,2445995.992361,25.7150,-84.8850,1100,4.5800
1984-10-22 12:19:00 UTC,2445996.013194,25.7150,-84.8850,1100,4.5700
1984-10-22 12:49:00 UTC,2445996.034028,25.7150,-84.8850,1100,4.5600
1984-10-22 13:19:00 UTC,2445996.054861,25.7150,-84.8850,1100,4.5600
1984-10-22 13:49:00 UTC,2445996.075694,25.7150,-84.8850,1100,4.4800
1984-10-22 14:19:00 UTC,2445996.096528,25.7150,-84.8850,1100,4.4700
1984-10-22 14:49:00 UTC,2445996.117361,25.7150,-84.8850,1100,4.4700
1984-10-22 15:19:00 UTC,2445996.138194,25.7150,-84.8850,1100,4.4700
1984-10-22 15:49:00 UTC,2445996.159028,25.7150,-84.8850,1100,4.4700
1984-10-22 16:19:00 UTC,2445996.179861,25.7150,-84.8850,1100,4.4800
1984-10-22 16:49:00 UTC,2445996.200694,25.7150,-84.8850,1100,4.4800
1984-10-22 17:19:00 UTC,2445996.221528,25.7150,-84.8850,1100,4.5600
1984-10-22 17:49:00 UTC,2445996.242361,25.7150,-84.8850,1100,4.5700
1984-10-22 18:19:00 UTC,2445996.263194,25.7150,-84.8850,1100,4.5800
1984-10-22 18:49:00 UTC,2445996.284028,25.7150,-84.8850,1100,4.5900
1984-10-22 19:19:00 UTC,2445996.304861,25.7150,-84.8850,1100,4.5900
1984-10-22 19:49:00 UTC,2445996.325694,25.7150,-84.8850,1100,4.5900
1984-10-22 20:19:00 UTC,2445996.346528,25.7150,-84.8850,1100,4.6100
1984-10-22 20:49:00 UTC,2445996.367361,25.7150,-84.8850,1100,4.6100
1984-10-22 21:19:00 UTC,2445996.388194,25.7150,-84.8850,1100,4.6100
1984-10-22 21:49:00 UTC,2445996.409028,25.7150,-84.8850,1100,4.5900
1984-10-22 22:19:00 UTC,2445996.429861,25.7150,-84.8850,1100,4.6000
1984-10-22 22:49:00 UTC,2445996.450694,25.7150,-84.8850,1100,4.6000
1984-10-22 23:19:00 UTC,2445996.471528,25.7150,-84.8850,1100,4.5900
1984-10-22 23:49:00 UTC,2445996.492361,25.7150,-84.8850,1100,4.5900
1984-10-23 00:19:00 UTC,2445996.513194,25.7150,-84.8850,1100,4.6100
1984-10-23 00:49:00 UTC,2445996.534028,25.7150,-84.8850,1100,4.5600
1984-10-23 01:19:00 UTC,2445996.554861,25.7150,-84.8850,1100,4.5800
1984-10-23 01:49:00 UTC,2445996.575694,25.7150,-84.8850,1100,4.5800
1984-10-23 02:19:00 UTC,2445996.596528,25.7150,-84.8850,1100,4.5700
1984-10-23 02:49:00 UTC,2445996.617361,25.7150,-84.8850,1100,4.5800
1984-10-23 03:19:00 UTC,2445996.638194,25.7150,-84.8850,1100,4.5800
1984-10-23 03:49:00 UTC,2445996.659028,25.7150,-84.8850,1100,4.5600
1984-10-23 04:19:00 UTC,2445996.679861,25.7150,-84.8850,1100,4.6300
1984-10-23 04:49:00 UTC,2445996.700694,25.7150,-84.8850,1100,4.7000
1984-10-23 05:19:00 UTC,2445996.721528,25.7150,-84.8850,1100,4.7000
1984-10-23 05:49:00 UTC,2445996.742361,25.7150,-84.8850,1100,4.7000
1984-10-23 06:19:00 UTC,2445996.763194,25.7150,-84.8850,1100,4.7000
1984-10-23 06:49:00 UTC,2445996.784028,25.7150,-84.8850,1100,4.6100
1984-10-23 07:19:00 UTC,2445996.804861,25.7150,-84.8850,1100,4.6100
1984-10-23 07:49:00 UTC,2445996.825694,25.7150,-84.8850,1100,4.6100
1984-10-23 08:19:00 UTC,2445996.846528,25.7150,-84.8850,1100,4.5900
1984-10-23 08:49:00 UTC,2445996.867361,25.7150,-84.8850,1100,4.5900
1984-10-23 09:19:00 UTC,2445996.888194,25.7150,-84.8850,1100,4.6100
1984-10-23 09:49:00 UTC,2445996.909028,25.7150,-84.8850,1100,4.6500
1984-10-23 10:19:00 UTC,2445996.929861,25.7150,-84.8850,1100,4.6500
1984-10-23 10:49:00 UTC,2445996.950694,25.7150,-84.8850,1100,4.6100
1984-10-23 11:19:00 UTC,2445996.971528,25.7150,-84.8850,1100,4.6100
1984-10-23 11:49:00 UTC,2445996.992361,25.7150,-84.8850,1100,4.6000
1984-10-23 12:19:00 UTC,2445997.013194,25.7150,-84.8850,1100,4.5900
1984-10-23 12:49:00 UTC,2445997.034028,25.7150,-84.8850,1100,4.5900
1984-10-23 13:19:00 UTC,2445997.054861,25.7150,-84.8850,1100,4.5800
1984-10-23 13:49:00 UTC,2445997.075694,25.7150,-84.8850,1100,4.5600
1984-10-23 14:19:00 UTC,2445997.096528,25.7150,-84.8850,1100,4.5700
1984-10-23 14:49:00 UTC,2445997.117361,25.7150,-84.8850,1100,4.5800
1984-10-23 15:19:00 UTC,2445997.138194,25.7150,-84.8850,1100,4.5800
1984-10-23 15:49:00 UTC,2445997.159028,25.7150,-84.8850,1100,4.5700
1984-10-23 16:19:00 UTC,2445997.179861,25.7150,-84.8850,1100,4.5600
1984-10-23 16:49:00 UTC,2445997.200694,25.7150,-84.8850,1100,4.5600
1984-10-23 17:19:00 UTC,2445997.221528,25.7150,-84.8850,1100,4.6000
1984-10-23 17:49:00 UTC,2445997.242361,25.7150,-84.8850,1100,4.6100
1984-10-23 18:19:00 UTC,2445997.263194,25.7150,-84.8850,1100,4.6100
1984-10-23 18:49:00 UTC,2445997.284028,25.7150,-84.8850,1100,4.6100
1984-10-23 19:19:00 UTC,2445997.304861,25.7150,-84.8850,1100,4.6000
1984-10-23 19:49:00 UTC,2445997.325694,25.7150,-84.8850,1100,4.5900
1984-10-23 20:19:00 UTC,2445997.346528,25.7150,-84.8850,1100,4.6000
1984-10-23 20:49:00 UTC,2445997.367361,25.7150,-84.8850,1100,4.6100
1984-10-23 21:19:00 UTC,2445997.388194,25.7150,-84.8850,1100,4.5600
1984-10-23 21:49:00 UTC,2445997.409028,25.7150,-84.8850,1100,4.5700
1984-10-23 22:19:00 UTC,2445997.429861,25.7150,-84.8850,1100,4.5800
1984-10-23 22:49:00 UTC,2445997.450694,25.7150,-84.8850,1100,4.5800
1984-10-23 23:19:00 UTC,2445997.471528,25.7150,-84.8850,1100,4.5800
1984-10-23 23:49:00 UTC,2445997.492361,25.7150,-84.8850,1100,4.5800
1984-10-24 00:19:00 UTC,2445997.513194,25.7150,-84.8850,1100,4.5800
1984-10-24 00:49:00 UTC,2445997.534028,25.7150,-84.8850,1100,4.5800
1984-10-24 01:19:00 UTC,2445997.554861,25.7150,-84.8850,1100,4.5800
1984-10-24 01:49:00 UTC,2445997.575694,25.7150,-84.8850,1100,4.5900
1984-10-24 02:19:00 UTC,2445997.596528,25.7150,-84.8850,1100,4.5900
1984-10-24 02:49:00 UTC,2445997.617361,25.7150,-84.8850,1100,4.5900
1984-10-24 03:19:00 UTC,2445997.638194,25.7150,-84.8850,1100,4.5900
1984-10-24 03:49:00 UTC,2445997.659028,25.7150,-84.8850,1100,4.5900
1984-10-24 04:19:00 UTC,2445997.679861,25.7150,-84.8850,1100,4.5800
1984-10-24 04:49:00 UTC,2445997.700694,25.7150,-84.8850,1100,4.5900
1984-10-24 05:19:00 UTC,2445997.721528,25.7150,-84.8850,1100,4.5900
1984-10-24 05:49:00 UTC,2445997.742361,25.7150,-84.8850,1100,4.5900
1984-10-24 06:19:00 UTC,2445997.763194,25.7150,-84.8850,1100,4.5900
1984-10-24 06:49:00 UTC,2445997.784028,25.7150,-84.8850,1100,4.5900
1984-10-24 07:19:00 UTC,2445997.804861,25.7150,-84.8850,1100,4.5900
1984-10-24 07:49:00 UTC,2445997.825694,25.7150,-84.8850,1100,4.5800
1984-10-24 08:19:00 UTC,2445997.846528,25.7150,-84.8850,1100,4.5800
1984-10-24 08:49:00 UTC,2445997.867361,25.7150,-84.8850,1100,4.5600
1984-10-24 09:19:00 UTC,2445997.888194,25.7150,-84.8850,1100,4.5600
1984-10-24 09:49:00 UTC,2445997.909028,25.7150,-84.8850,1100,4.5800
1984-10-24 10:19:00 UTC,2445997.929861,25.7150,-84.8850,1100,4.5800
1984-10-24 10:49:00 UTC,2445997.950694,25.7150,-84.8850,1100,4.5800
1984-10-24 11:19:00 UTC,2445997.971528,25.7150,-84.8850,1100,4.5800
1984-10-24 11:49:00 UTC,2445997.992361,25.7150,-84.8850,1100,4.5900
1984-10-24 12:19:00 UTC,2445998.013194,25.7150,-84.8850,1100,4.5800
1984-10-24 12:49:00 UTC,2445998.034028,25.7150,-84.8850,1100,4.5800
1984-10-24 13:19:00 UTC,2445998.054861,25.7150,-84.8850,1100,4.5800
1984-10-24 13:49:00 UTC,2445998.075694,25.7150,-84.8850,1100,4.5800
1984-10-24 14:19:00 UTC,2445998.096528,25.7150,-84.8850,1100,4.5900
1984-10-24 14:49:00 UTC,2445998.117361,25.7150,-84.8850,1100,4.5900
1984-10-24 15:19:00 UTC,2445998.138194,25.7150,-84.8850,1100,4.5900
1984-10-24 15:49:00 UTC,2445998.159028,25.7150,-84.8850,1100,4.5900
1984-10-24 16:19:00 UTC,2445998.179861,25.7150,-84.8850,1100,4.6000
1984-10-24 16:49:00 UTC,2445998.200694,25.7150,-84.8850,1100,4.6100
1984-10-24 17:19:00 UTC,2445998.221528,25.7150,-84.8850,1100,4.5900
1984-10-24 17:49:00 UTC,2445998.242361,25.7150,-84.8850,1100,4.5900
1984-10-24 18:19:00 UTC,2445998.263194,25.7150,-84.8850,1100,4.5900
1984-10-24 18:49:00 UTC,2445998.284028,25.7150,-84.8850,1100,4.5900
1984-10-24 19:19:00 UTC,2445998.304861,25.7150,-84.8850,1100,4.5800
1984-10-24 19:49:00 UTC,2445998.325694,25.7150,-84.8850,1100,4.5800
1984-10-24 20:19:00 UTC,2445998.346528,25.7150,-84.8850,1100,4.5800
1984-10-24 20:49:00 UTC,2445998.367361,25.7150,-84.8850,1100,4.5800
1984-10-24 21:19:00 UTC,2445998.388194,25.7150,-84.8850,1100,4.5800
1984-10-24 21:49:00 UTC,2445998.409028,25.7150,-84.8850,1100,4.5800
1984-10-24 22:19:00 UTC,2445998.429861,25.7150,-84.8850,1100,4.5900
1984-10-24 22:49:00 UTC,2445998.450694,25.7150,-84.8850,1100,4.5900
1984-10-24 23:19:00 UTC,2445998.471528,25.7150,-84.8850,1100,4.6000
1984-10-24 23:49:00 UTC,2445998.492361,25.7150,-84.8850,1100,4.6100
1984-10-25 00:19:00 UTC,2445998.513194,25.7150,-84.8850,1100,4.6100
1984-10-25 00:49:00 UTC,2445998.534028,25.7150,-84.8850,1100,4.5900
1984-10-25 01:19:00 UTC,2445998.554861,25.7150,-84.8850,1100,4.5800
1984-10-25 01:49:00 UTC,2445998.575694,25.7150,-84.8850,1100,4.5900
1984-10-25 02:19:00 UTC,2445998.596528,25.7150,-84.8850,1100,4.6100
1984-10-25 02:49:00 UTC,2445998.617361,25.7150,-84.8850,1100,4.6100
1984-10-25 03:19:00 UTC,2445998.638194,25.7150,-84.8850,1100,4.6100
1984-10-25 03:49:00 UTC,2445998.659028,25.7150,-84.8850,1100,4.6000
1984-10-25 04:19:00 UTC,2445998.679861,25.7150,-84.8850,1100,4.5900
1984-10-25 04:49:00 UTC,2445998.700694,25.7150,-84.8850,1100,4.5900
1984-10-25 05:19:00 UTC,2445998.721528,25.7150,-84.8850,1100,4.6000
1984-10-25 05:49:00 UTC,2445998.742361,25.7150,-84.8850,1100,4.6100
1984-10-25 06:19:00 UTC,2445998.763194,25.7150,-84.8850,1100,4.6100
1984-10-25 06:49:00 UTC,2445998.784028,25.7150,-84.8850,1100,4.6300
1984-10-25 07:19:00 UTC,2445998.804861,25.7150,-84.8850,1100,4.6700
1984-10-25 07:49:00 UTC,2445998.825694,25.7150,-84.8850,1100,4.6700
1984-10-25 08:19:00 UTC,2445998.846528,25.7150,-84.8850,1100,4.6300
1984-10-25 08:49:00 UTC,2445998.867361,25.7150,-84.8850,1100,4.6000
1984-10-25 09:19:00 UTC,2445998.888194,25.7150,-84.8850,1100,4.5800
1984-10-25 09:49:00 UTC,2445998.909028,25.7150,-84.8850,1100,4.5700
1984-10-25 10:19:00 UTC,2445998.929861,25.7150,-84.8850,1100,4.5900
1984-10-25 10:49:00 UTC,2445998.950694,25.7150,-84.8850,1100,4.5900
1984-10-25 11:19:00 UTC,2445998.971528,25.7150,-84.8850,1100,4.5900
1984-10-25 11:49:00 UTC,2445998.992361,25.7150,-84.8850,1100,4.5900
1984-10-25 12:19:00 UTC,2445999.013194,25.7150,-84.8850,1100,4.5800
1984-10-25 12:49:00 UTC,2445999.034028,25.7150,-84.8850,1100,4.5900
1984-10-25 13:19:00 UTC,2445999.054861,25.7150,-84.8850,1100,4.5900
1984-10-25 13:49:00 UTC,2445999.075694,25.7150,-84.8850,1100,4.5900